This is the latest recevied weather packets stored in our database for station/object OE3CJB-13. If no packets are shown the sender has not sent any weather packets the latest 10 day(s).
| Time | Temp. | Humidity | Pressure | Rain* | Wind** | Luminosity | Snow |
|---|---|---|---|---|---|---|---|
| 1788364848 | 27.78° C | 15% | 1183.8 hPa | 0 mm | - | - | - |
| 1788363933 | 27.78° C | 13% | 1185.5 hPa | 0 mm | - | - | - |
| 1788363021 | 27.78° C | 14% | 1186.1 hPa | 0 mm | - | - | - |
| 1788362159 | 28.33° C | 14% | 1186.2 hPa | 0 mm | - | - | - |
| 1788361247 | 28.33° C | 13% | 1188.5 hPa | 0 mm | - | - | - |
| 1788360335 | 28.89° C | 12% | 1188.5 hPa | 0 mm | - | - | - |
| 1788359421 | 29.44° C | 13% | 1189.2 hPa | 0 mm | - | - | - |
| 1788358565 | 29.44° C | 12% | 1190 hPa | 0 mm | - | - | - |
| 1788357667 | 28.89° C | 14% | 1191.7 hPa | 0 mm | - | - | - |
| 1788356734 | 29.44° C | 13% | 1191.7 hPa | 0 mm | - | - | - |
| 1788355821 | 29.44° C | 15% | 1190.9 hPa | 0 mm | - | - | - |
| 1788354958 | 29.44° C | 15% | 1190.4 hPa | 0 mm | - | - | - |
| 1788354047 | 29.44° C | 16% | 1190.5 hPa | 0 mm | - | - | - |
| 1788353133 | 29.44° C | 17% | 1189.7 hPa | 0 mm | - | - | - |
| 1788352221 | 29.44° C | 18% | 1190.7 hPa | 0 mm | - | - | - |
| 1788351358 | 28.89° C | 20% | 1190 hPa | 0 mm | - | - | - |
| 1788350476 | 28.33° C | 19% | 1190 hPa | 0 mm | - | - | - |
| 1788349533 | 28.33° C | 21% | 1189.4 hPa | 0 mm | - | - | - |
| 1788348674 | 28.33° C | 22% | 1189.5 hPa | 0 mm | - | - | - |
| 1788347758 | 27.22° C | 25% | 1189 hPa | 0 mm | - | - | - |
| 1788346847 | 27.22° C | 29% | 1189 hPa | 0 mm | - | - | - |
| 1788345933 | 26.67° C | 29% | 1189.1 hPa | 0 mm | - | - | - |
| 1788345021 | 26.11° C | 31% | 1188.5 hPa | 0 mm | - | - | - |
| 1788344158 | 25.56° C | 34% | 1188.7 hPa | 0 mm | - | - | - |
| 1788343247 | 25.56° C | 36% | 1188 hPa | 0 mm | - | - | - |
* Rain latest hour (hover to see other rain measurements)
** Current wind speed in m/s (hover to see current wind gust speed)